Weather History for Henderson, NV

Change the Weather History Date:

Friday, February 22, 2013

  Actual Average (KLAS) Record (KLAS)
Temperature  
Mean Temperature 43 °F 55 °F  
Max Temperature 55 °F 64 °F 77 °F (1961)
Min Temperature 31 °F 45 °F 20 °F (1953)
Degree Days  
Heating Degree Days 22 10  
Month to date heating degree days 281  
Since 1 July heating degree days 1633  
Cooling Degree Days 0 0  
Month to date cooling degree days 0  
Year to date cooling degree days 0  
Moisture  
Dew Point 12 °F    
Average Humidity 30    
Maximum Humidity 47    
Minimum Humidity 17    
Precipitation  
Precipitation 0.00 in 0.03 in 0.68 in (2004)
Month to date precipitation 0.59  
Year to date precipitation 1.13  
Snow  
Snow 0.00 in 0.00 in 0.00 in (2013)
Month to date snowfall 0.1  
Since 1 July snowfall 0.3  
Snow Depth -    
Sea Level Pressure  
Sea Level Pressure 30.16 in    
Wind  
Wind Speed 5 mph (SSW)    
Max Wind Speed 10 mph    
Max Gust Speed -    
Visibility 10 miles    
Events      
T = Trace of Precipitation, MM = Missing Value Source: NWS Daily Summary

Daily Weather History Graph

Daily Weather History Graph

Search for Another Location

Airport:

Trip Planner

Search our weather history database for the weather conditions in past years. The results will help you decide how hot, cold, wet, or windy it might be!

Date:

Astronomy

Feb. 22, 2013 Rise Set
Actual Time 6:19 AM PST 5:29 PM PST
Civil Twilight 5:53 AM PST 5:55 PM PST
Nautical Twilight 5:23 AM PST 6:25 PM PST
Astronomical Twilight 4:53 AM PST 6:54 PM PST
Moon 2:48 PM PST (2/22) 4:03 AM PST (2/22)
Length of Visible Light 12h 01m
Length of Day
11h 10m
Waxing Gibbous, 91% of the Moon is Illuminated
Feb 22
Waxing Gibbous
Feb 25
Full
Mar 4
Last Quarter
Mar 11
New
Mar 19
First Quarter

Hourly Weather History & Observations

Time (PST) Temp. Windchill Dew Point Humidity Pressure Visibility Wind Dir Wind Speed Gust Speed Precip Events Conditions
12:56 AM 32.9 °F - 14.0 °F 46% 30.11 in 10.0 mi Calm Calm - N/A   Clear
1:56 AM 32.9 °F 26.7 °F 14.0 °F 46% 30.12 in 10.0 mi South 6.9 mph - N/A   Clear
2:56 AM 36.0 °F - 11.1 °F 36% 30.10 in 10.0 mi Calm Calm - N/A   Clear
3:56 AM 32.0 °F 25.6 °F 12.0 °F 44% 30.13 in 10.0 mi South 6.9 mph - N/A   Clear
4:56 AM 32.0 °F 24.8 °F 12.0 °F 44% 30.15 in 10.0 mi SSW 8.1 mph - N/A   Clear
5:56 AM 31.1 °F 23.1 °F 13.1 °F 47% 30.16 in 10.0 mi SSE 9.2 mph - N/A   Clear
6:56 AM 32.0 °F 25.6 °F 12.0 °F 44% 30.19 in 10.0 mi South 6.9 mph - N/A   Clear
7:56 AM 38.8 °F 33.8 °F 12.0 °F 33% 30.21 in 10.0 mi South 6.9 mph - N/A   Clear
8:56 AM 43.9 °F 42.3 °F 10.0 °F 25% 30.23 in 10.0 mi NW 3.5 mph - N/A   Clear
9:56 AM 45.9 °F 44.6 °F 10.0 °F 23% 30.22 in 10.0 mi Variable 3.5 mph - N/A   Clear
10:56 AM 50.0 °F - 11.1 °F 21% 30.22 in 10.0 mi WNW 3.5 mph - N/A   Clear
11:56 AM 52.9 °F - 12.0 °F 20% 30.21 in 10.0 mi Variable 3.5 mph - N/A   Clear
12:56 PM 54.0 °F - 12.0 °F 19% 30.17 in 10.0 mi Variable 3.5 mph - N/A   Clear
1:56 PM 54.9 °F - 12.0 °F 18% 30.14 in 10.0 mi North 6.9 mph - N/A   Clear
2:56 PM 55.9 °F - 12.0 °F 18% 30.14 in 10.0 mi NE 4.6 mph - N/A   Clear
3:56 PM 55.4 °F - 10.4 °F 17% 30.11 in 10.0 mi WSW 5.8 mph - N/A   Clear
4:56 PM 54.9 °F - 10.0 °F 17% 30.14 in 10.0 mi SSW 5.8 mph - N/A   Clear
5:56 PM 52.9 °F - 12.0 °F 20% 30.14 in 10.0 mi SSE 6.9 mph - N/A   Clear
6:56 PM 50.0 °F - 15.8 °F 26% 30.11 in 10.0 mi SSE 9.2 mph - N/A   Clear
7:56 PM 48.9 °F - 15.1 °F 26% 30.15 in 10.0 mi SSE 10.4 mph - N/A   Clear
8:56 PM 45.9 °F 42.9 °F 14.0 °F 28% 30.17 in 10.0 mi SW 5.8 mph - N/A   Clear
9:56 PM 43.9 °F 39.9 °F 14.0 °F 30% 30.16 in 10.0 mi South 6.9 mph - N/A   Clear
10:56 PM 41.9 °F 36.9 °F 13.1 °F 31% 30.14 in 10.0 mi SW 8.1 mph - N/A   Clear
11:56 PM 39.9 °F 35.1 °F 13.1 °F 33% 30.12 in 10.0 mi South 6.9 mph - N/A   Clear